This is the latest recevied weather packets stored in our database for station/object N6OIM. If no packets are shown the sender has not sent any weather packets the latest 10 day(s).
| Time | Temp. | Humidity | Pressure | Rain* | Wind** | Luminosity | Snow |
|---|---|---|---|---|---|---|---|
| 1777602515 | 27.78° C | 43% | 1008.8 hPa | 0 mm | - | - | - |
| 1777602204 | 28.33° C | 43% | 1008.8 hPa | 0 mm | - | - | - |
| 1777601913 | 28.33° C | 42% | 1008.8 hPa | 0 mm | - | - | - |
| 1777601602 | 28.89° C | 41% | 1008.8 hPa | 0 mm | - | - | - |
| 1777601311 | 28.89° C | 41% | 1008.7 hPa | 0 mm | - | - | - |
| 1777601003 | 29.44° C | 40% | 1008.8 hPa | 0 mm | - | - | - |
| 1777587212 | 28.89° C | 36% | 1010.2 hPa | 0 mm | - | - | - |
| 1777586901 | 28.89° C | 38% | 1010.2 hPa | 0 mm | - | - | - |
| 1777586609 | 28.33° C | 37% | 1010.4 hPa | 0 mm | - | - | - |
| 1777583914 | 27.78° C | 41% | 1010.6 hPa | 0 mm | - | - | - |
| 1777583602 | 27.78° C | 40% | 1010.7 hPa | 0 mm | - | - | - |
| 1777583310 | 27.78° C | 42% | 1010.6 hPa | 0 mm | - | - | - |
| 1777582706 | 27.22° C | 41% | 1010.6 hPa | 0 mm | - | - | - |
| 1777581815 | 26.67° C | 44% | 1010.7 hPa | 0 mm | - | - | - |
| 1777580302 | 26.11° C | 44% | 1011 hPa | 0 mm | - | - | - |
| 1777580011 | 26.11° C | 43% | 1011 hPa | 0 mm | - | - | - |
| 1777579101 | 25.56° C | 43% | 1011.1 hPa | 0 mm | - | - | - |
| 1777577897 | 25.56° C | 46% | 1011.5 hPa | 0 mm | - | - | - |
| 1777577299 | 25° C | 45% | 1011.6 hPa | 0 mm | - | - | - |
| 1777576116 | 24.44° C | 48% | 1011.8 hPa | 0 mm | - | - | - |
| 1777574001 | 23.33° C | 49% | 1012.2 hPa | 0 mm | - | - | - |
| 1777571310 | 22.22° C | 53% | 1012.5 hPa | 0 mm | - | - | - |
| 1777570108 | 21.11° C | 57% | 1012.6 hPa | 0 mm | - | - | - |
| 1777569212 | 20.56° C | 58% | 1012.6 hPa | 0 mm | - | - | - |
| 1777568614 | 20° C | 59% | 1012.6 hPa | 0 mm | - | - | - |
* Rain latest hour (hover to see other rain measurements)
** Current wind speed in m/s (hover to see current wind gust speed)